Zurück zum Katalog

STARLINK-37745

AktivKommunikationSSO
NORAD 69232·PAYLOAD·🇺🇸 United States

Gestartet May 26, 2026 von Vandenberg Space Force Base

Loading…

Nächste Überflüge (nächste 24 Stunden)

TLE

AktuellSource: CelesTrak SupGP

Epoche: Sep 14, 2026, 22:41 UTC

1 69232C 26115X   26257.94562500  .00044453  00000+0  13800-2 0  2570
2 69232  97.2830 274.1927 0001430  88.5246 275.5240 15.33414098    10

Verfolge STARLINK-37745 in Echtzeit mit AllMySat

Download on the App Store